[[{"header":{"parameterUnit":"m.s-1","parameterCategory":2,"la1":30.2991,"la2":30.254,"lo1":-89.0895,"lo2":-89.0444,"dy":0.0017,"dx":0.0017,"nx":28,"ny":28,"refTime":"2025-06-20T21:00:00:Z","depth":"0","parameterNumber":2,"parameterNumberName":"U-component_of_CURRENTS"},"data":[0,0,0,0,0,0,0,0,0,0,0,0,0,0,0,0,0,0,0,0,0,0,0,0,0,0,0,0,0,0,0,0,0,0,0,0,0,0,0,0,0,0,0,0,0,0,0,0,0,0,0,0,0,0,0,0,0,0,-0.1796,-0.1796,0,-0.1838,-0.1839,-0.1839,-0.184,-0.1839,-0.1839,-0.1839,-0.1874,-0.1875,-0.1876,0,0,0,0,0,0,0,0,0,0,0,0,0,-0.1677,-0.1679,-0.1795,-0.1796,-0.1797,-0.1838,-0.1839,-0.1839,-0.184,-0.1839,-0.1839,-0.1839,-0.1874,-0.1875,-0.1876,0,0,0,0,0,0,0,0,0,0,0,0,0,-0.1722,-0.168,-0.1795,-0.1805,-0.1807,-0.1838,-0.1839,-0.1839,-0.184,-0.1839,-0.1839,-0.1839,-0.1873,-0.1875,-0.1877,-0.1893,0,0,-0.1882,-0.1882,0,0,0,0,0,0,0,0,-0.1719,-0.1726,-0.1803,-0.1805,-0.1807,-0.1837,-0.181,-0.1858,-0.184,-0.1823,-0.1839,-0.1839,-0.1863,-0.1866,-0.187,-0.1895,-0.1896,-0.1882,-0.1883,-0.1884,-0.1884,0,0,0,0,0,0,0,-0.1716,-0.1724,-0.1809,-0.1804,-0.1806,-0.1795,-0.1801,-0.1818,-0.1842,-0.1825,-0.1826,-0.1837,-0.1864,-0.1868,-0.187,-0.1897,-0.1882,-0.1883,-0.1884,-0.1885,-0.1893,-0.1892,0,0,0,0,0,0,-0.1721,-0.1721,-0.1808,-0.181,-0.1765,-0.1798,-0.1804,-0.1824,-0.1842,-0.1845,-0.1837,-0.1837,-0.1865,-0.1868,-0.1872,-0.1864,-0.1884,-0.1885,-0.1886,-0.1894,-0.1893,-0.1892,0,0,0,0,0,0,-0.1718,-0.1729,-0.1806,-0.1769,-0.1778,-0.1801,-0.1823,-0.1825,-0.1829,-0.1852,-0.1854,-0.1839,-0.1865,-0.1869,-0.1868,-0.1866,-0.1886,-0.1887,-0.1895,-0.1893,-0.1892,-0.1866,0,0,0,0,0,0,-0.1715,-0.1728,-0.1738,-0.177,-0.1781,-0.1819,-0.1824,-0.1827,-0.1838,-0.1838,-0.1854,-0.1857,-0.1865,-0.1865,-0.1869,-0.1869,-0.1889,-0.1896,-0.1894,-0.1893,-0.1868,-0.1864,-0.1861,0,0,0,0,0,-0.1711,-0.1721,-0.1739,-0.1749,-0.1797,-0.1819,-0.1823,-0.1835,-0.1839,-0.1837,-0.1837,-0.1856,-0.1859,-0.1866,-0.1871,-0.1871,-0.1896,-0.1894,-0.1893,-0.1869,-0.1865,-0.1861,0,0,0,0,0,0,-0.1663,-0.1724,-0.1743,-0.1769,-0.1793,-0.182,-0.1821,-0.1836,-0.1836,-0.1831,-0.1849,-0.1851,-0.185,-0.186,-0.1868,-0.1866,-0.1881,-0.188,-0.1861,-0.1857,-0.1853,-0.1813,-0.189,0,0,0,0,0,-0.1664,-0.169,-0.174,-0.1754,-0.177,-0.1797,-0.1807,-0.1817,-0.1828,-0.1828,-0.1838,-0.1843,-0.1848,-0.1851,-0.1857,-0.186,-0.1821,-0.1861,-0.1858,-0.1855,-0.1824,-0.1757,-0.1744,-0.1886,-0.1886,-0.1886,0,0,-0.1644,-0.1683,-0.1695,-0.1747,-0.1764,-0.1785,-0.18,-0.1812,-0.1814,-0.1832,-0.1825,-0.1835,-0.1846,-0.1841,-0.1843,-0.185,-0.1795,-0.1852,-0.185,-0.182,-0.1754,-0.174,-0.1727,-0.1885,-0.1885,-0.1885,0,0,-0.1618,-0.1659,-0.1674,-0.1705,-0.1744,-0.1763,-0.1769,-0.1798,-0.1793,-0.1797,-0.1804,-0.1787,-0.182,-0.18,-0.1803,-0.178,-0.178,-0.1812,-0.1763,-0.17,-0.1687,-0.1675,-0.1608,-0.159,-0.1809,-0.1809,-0.1809,0,-0.1591,-0.1628,-0.1675,-0.1703,-0.172,-0.1756,-0.1765,-0.1772,-0.179,-0.1775,-0.1788,-0.1782,-0.1785,-0.1762,-0.1748,-0.1768,-0.1742,-0.1783,-0.1693,-0.168,-0.1669,-0.1603,-0.1584,-0.1808,-0.1808,-0.1808,-0.1808,0,-0.1582,-0.1617,-0.1624,-0.1678,-0.17,-0.171,-0.1742,-0.1739,-0.1744,-0.1749,-0.1725,-0.1717,-0.1705,-0.1716,-0.1725,-0.1661,-0.1672,-0.1698,-0.1701,-0.1652,-0.1587,-0.1567,-0.1806,-0.1806,-0.1807,-0.1807,0,0,-0.15,-0.1599,-0.16,-0.162,-0.1688,-0.1693,-0.17,-0.1701,-0.1682,-0.1688,-0.1656,-0.164,-0.1634,-0.1631,-0.1643,-0.1584,-0.1475,-0.1607,-0.1605,-0.1534,-0.1336,-0.1346,-0.1325,-0.1503,-0.1499,-0.1496,-0.1323,0,-0.1471,-0.1512,-0.1572,-0.1588,-0.1608,-0.1652,-0.1651,-0.1656,-0.1657,-0.1635,-0.1612,-0.1594,-0.1609,-0.16,-0.1542,-0.1509,-0.1423,-0.1518,-0.1397,-0.1392,-0.1402,-0.1302,-0.1255,-0.1097,-0.1304,-0.1301,-0.1299,0,-0.1438,-0.1472,-0.1494,-0.1543,-0.1551,-0.1564,-0.1556,-0.1562,-0.1554,-0.155,-0.1531,-0.154,-0.147,-0.1487,-0.1354,-0.1428,-0.1355,-0.1315,-0.1309,-0.1305,-0.1365,-0.1179,-0.1054,-0.1072,-0.1268,-0.1271,-0.1273,0,-0.1344,-0.1408,-0.1417,-0.1442,-0.1506,-0.1498,-0.1512,-0.1521,-0.1506,-0.1492,-0.1484,-0.1437,-0.1401,-0.1319,-0.125,-0.1298,-0.1098,-0.1156,-0.1077,-0.1078,-0.1,-0.1001,-0.0866,-0.0999,-0.0999,-0.1,-0.1,0,-0.1294,-0.1295,-0.1372,-0.1378,-0.1359,-0.1427,-0.1393,-0.1407,-0.1413,-0.1388,-0.1426,-0.1398,-0.1356,-0.1274,-0.1207,-0.1077,-0.1051,-0.1021,-0.1017,-0.0993,-0.0995,-0.0982,-0.1018,-0.0993,-0.0995,-0.0996,-0.0997,0,-0.1202,-0.126,-0.1266,-0.1317,-0.1325,-0.1305,-0.1329,-0.1302,-0.1334,-0.1306,-0.1302,-0.1326,-0.1234,-0.1171,-0.1027,-0.1009,-0.0874,-0.0839,-0.0817,-0.0814,-0.0814,-0.0851,-0.0701,-0.0671,-0.0734,-0.0733,-0.0732,0,-0.1166,-0.1164,-0.1202,-0.1195,-0.1218,-0.1208,-0.1198,-0.1239,-0.1226,-0.1258,-0.1234,-0.1184,-0.1134,-0.0962,-0.0881,-0.0736,-0.0764,-0.0648,-0.0719,-0.0759,-0.0797,-0.0849,-0.0838,-0.0597,-0.0595,-0.0593,-0.0592,0,-0.1081,-0.1093,-0.1099,-0.109,-0.108,-0.107,-0.1069,-0.1056,-0.1103,-0.1105,-0.1105,-0.1081,-0.0961,-0.0824,-0.0681,-0.0618,-0.067,-0.0616,-0.0637,-0.0642,-0.0701,-0.069,-0.0779,-0.0578,-0.0579,-0.058,-0.0581,-0.0582,-0.1002,-0.0979,-0.0986,-0.0965,-0.0966,-0.0943,-0.0896,-0.0912,-0.0896,-0.088,-0.0948,-0.0845,-0.0747,-0.0557,-0.0545,-0.0491,-0.053,-0.0493,-0.0519,-0.0556,-0.0568,-0.0636,-0.0467,-0.0467,-0.0468,-0.0469,-0.0469,0,-0.0896,-0.0879,-0.0859,-0.0837,-0.0811,-0.0843,-0.0812,-0.0753,-0.0713,-0.0683,-0.0673,-0.0491,-0.0419,-0.037,-0.0344,-0.0388,-0.0406,-0.0412,-0.0453,-0.0434,-0.0448,-0.0488,-0.034,-0.034,-0.034,-0.034,-0.034,-0.034,-0.0836,-0.0776,-0.0767,-0.0693,-0.0688,-0.0612,-0.0581,-0.0513,-0.0448,-0.0307,-0.0173,-0.0125,-0.0035,-0.0208,-0.0333,-0.0384,-0.0404,-0.0401,-0.0427,-0.0448,-0.0458,-0.0468,-0.0513,-0.0372,-0.0373,-0.0382,-0.0382,-0.0382]},{"header":{"parameterUnit":"m.s-1","parameterCategory":2,"la1":30.2991,"la2":30.254,"lo1":-89.0895,"lo2":-89.0444,"dy":0.0017,"dx":0.0017,"nx":28,"ny":28,"refTime":"2025-06-20T21:00:00:Z","depth":"0","parameterNumber":3,"parameterNumberName":"V-component_of_CURRENTS"},"data":[0,0,0,0,0,0,0,0,0,0,0,0,0,0,0,0,0,0,0,0,0,0,0,0,0,0,0,0,0,0,0,0,0,0,0,0,0,0,0,0,0,0,0,0,0,0,0,0,0,0,0,0,0,0,0,0,0,0,-0.1007,-0.1007,0,-0.1035,-0.1036,-0.1036,-0.1029,-0.1028,-0.1027,-0.1026,-0.0903,-0.09,-0.0898,0,0,0,0,0,0,0,0,0,0,0,0,0,-0.0867,-0.087,-0.1007,-0.1007,-0.1007,-0.1035,-0.1036,-0.1036,-0.1029,-0.1028,-0.1027,-0.1026,-0.0904,-0.0901,-0.0897,0,0,0,0,0,0,0,0,0,0,0,0,0,-0.0917,-0.0871,-0.1007,-0.1006,-0.1006,-0.1035,-0.1036,-0.1036,-0.1029,-0.1028,-0.1027,-0.1026,-0.0905,-0.0901,-0.0897,-0.0895,0,0,-0.0885,-0.0883,0,0,0,0,0,0,0,0,-0.0914,-0.0922,-0.1006,-0.1006,-0.1006,-0.1026,-0.0941,-0.0981,-0.1029,-0.1022,-0.1026,-0.1025,-0.0929,-0.0923,-0.0936,-0.0889,-0.0884,-0.0885,-0.0882,-0.0881,-0.0879,0,0,0,0,0,0,0,-0.0911,-0.092,-0.102,-0.1006,-0.1006,-0.0976,-0.0983,-0.0949,-0.098,-0.1023,-0.1022,-0.1022,-0.0928,-0.094,-0.0932,-0.0882,-0.0885,-0.0881,-0.0879,-0.0877,-0.0662,-0.0659,0,0,0,0,0,0,-0.091,-0.0918,-0.1019,-0.1021,-0.0954,-0.098,-0.0987,-0.1022,-0.0984,-0.0978,-0.1023,-0.1022,-0.0947,-0.0937,-0.0928,-0.087,-0.0881,-0.0877,-0.0875,-0.0665,-0.0661,-0.0658,0,0,0,0,0,0,-0.0907,-0.092,-0.1018,-0.0966,-0.0976,-0.0984,-0.1022,-0.1023,-0.1033,-0.0986,-0.0977,-0.1031,-0.0946,-0.0933,-0.0909,-0.0867,-0.0875,-0.0872,-0.0669,-0.0664,-0.0659,-0.0788,0,0,0,0,0,0,-0.0904,-0.092,-0.0947,-0.0967,-0.0979,-0.1048,-0.1023,-0.1024,-0.1034,-0.1032,-0.0989,-0.0977,-0.0944,-0.0916,-0.0906,-0.0862,-0.0869,-0.0674,-0.0667,-0.0661,-0.0788,-0.0788,-0.0788,0,0,0,0,0,-0.0899,-0.0937,-0.0949,-0.0961,-0.1017,-0.105,-0.1054,-0.1054,-0.1035,-0.1056,-0.1023,-0.0978,-0.0864,-0.0914,-0.0902,-0.0855,-0.0677,-0.0669,-0.0662,-0.0788,-0.0788,-0.0788,0,0,0,0,0,0,-0.0893,-0.0941,-0.0954,-0.1007,-0.1033,-0.1048,-0.1058,-0.1059,-0.1054,-0.1043,-0.0992,-0.0979,-0.0925,-0.0865,-0.092,-0.0757,-0.0739,-0.0729,-0.0838,-0.0837,-0.0837,-0.086,-0.0865,0,0,0,0,0,-0.0906,-0.0946,-0.0984,-0.1025,-0.1037,-0.1049,-0.106,-0.1068,-0.1063,-0.1061,-0.1031,-0.0957,-0.0883,-0.085,-0.079,-0.0742,-0.0665,-0.0674,-0.0674,-0.0676,-0.0675,-0.053,-0.0519,-0.0633,-0.0633,-0.0633,0,0,-0.0914,-0.0944,-0.0967,-0.1025,-0.1039,-0.1072,-0.1054,-0.108,-0.1098,-0.1044,-0.1048,-0.0979,-0.0871,-0.0813,-0.0775,-0.0763,-0.0604,-0.0666,-0.0669,-0.0667,-0.0521,-0.0511,-0.0502,-0.0628,-0.0629,-0.0629,0,0,-0.094,-0.0977,-0.1016,-0.1043,-0.1075,-0.1088,-0.1097,-0.1121,-0.1121,-0.1128,-0.1057,-0.0972,-0.0904,-0.0808,-0.0745,-0.0697,-0.0617,-0.0649,-0.0672,-0.0533,-0.0524,-0.0515,-0.0435,-0.0418,-0.064,-0.0641,-0.0641,0,-0.0944,-0.1005,-0.103,-0.1069,-0.1085,-0.1095,-0.1131,-0.1142,-0.1156,-0.1149,-0.1135,-0.097,-0.0887,-0.0765,-0.0742,-0.0699,-0.0637,-0.0706,-0.0541,-0.053,-0.0519,-0.0438,-0.0418,-0.0646,-0.0645,-0.0645,-0.0644,0,-0.1001,-0.1043,-0.1061,-0.1118,-0.1145,-0.1174,-0.1195,-0.1214,-0.1204,-0.1202,-0.1116,-0.1005,-0.0899,-0.0827,-0.0782,-0.0636,-0.0626,-0.0578,-0.0568,-0.0517,-0.0433,-0.041,-0.0653,-0.0651,-0.065,-0.0649,0,0,-0.1016,-0.1088,-0.1094,-0.1116,-0.1169,-0.1192,-0.1225,-0.1248,-0.1256,-0.1219,-0.1187,-0.1025,-0.0967,-0.0884,-0.0777,-0.0644,-0.0518,-0.0593,-0.0583,-0.0562,-0.0259,-0.0283,-0.026,-0.046,-0.0455,-0.0452,-0.0247,0,-0.1045,-0.1116,-0.1149,-0.1199,-0.1228,-0.125,-0.1278,-0.1298,-0.1298,-0.1282,-0.1137,-0.1061,-0.0986,-0.0914,-0.0781,-0.0571,-0.0457,-0.058,-0.0267,-0.0258,-0.0325,-0.0232,-0.02,-0.0017,-0.0224,-0.022,-0.0217,0,-0.1086,-0.1123,-0.1183,-0.1227,-0.1242,-0.1276,-0.131,-0.1339,-0.1327,-0.1319,-0.1235,-0.1154,-0.0957,-0.0895,-0.0548,-0.0641,-0.047,-0.0312,-0.0299,-0.0259,-0.0237,-0.0084,0.0034,0.0118,-0.018,-0.0183,-0.0186,0,-0.107,-0.1139,-0.1179,-0.12,-0.1262,-0.1283,-0.1312,-0.1343,-0.1357,-0.1329,-0.131,-0.1134,-0.0982,-0.0759,-0.0473,-0.0502,-0.0101,-0.009,0.0043,0.0041,0.0167,0.0168,0.0368,0.0151,0.0151,0.015,0.0149,0,-0.1082,-0.1105,-0.1172,-0.1192,-0.1228,-0.1276,-0.1312,-0.134,-0.1353,-0.1345,-0.1307,-0.1214,-0.0931,-0.07,-0.048,-0.0149,-0.0098,0.0056,0.0113,0.0121,0.0116,0.0272,0.0289,0.0158,0.0156,0.0155,0.0153,0,-0.1048,-0.1101,-0.1137,-0.1202,-0.1221,-0.1244,-0.1308,-0.1333,-0.1359,-0.1338,-0.1318,-0.1201,-0.0915,-0.066,-0.0252,-0.0118,0.025,0.0276,0.0224,0.027,0.0407,0.0415,0.0685,0.0765,0.0437,0.0438,0.0438,0,-0.103,-0.1053,-0.1126,-0.1149,-0.1174,-0.1219,-0.1255,-0.1318,-0.1345,-0.1307,-0.1275,-0.1054,-0.0884,-0.0383,-0.0083,0.0259,0.0358,0.0459,0.042,0.0434,0.049,0.0485,0.0533,0.0538,0.054,0.0541,0.0542,0,-0.0975,-0.1011,-0.1043,-0.1101,-0.1141,-0.1187,-0.1239,-0.1264,-0.1315,-0.13,-0.12,-0.1064,-0.0652,-0.0266,0.0118,0.0319,0.0494,0.0489,0.058,0.0642,0.059,0.0686,0.0327,0.0553,0.0552,0.0551,0.0551,0.055,-0.091,-0.0928,-0.0987,-0.1038,-0.1089,-0.114,-0.116,-0.1201,-0.122,-0.1175,-0.11,-0.0895,-0.0412,0.0121,0.0289,0.0635,0.0619,0.075,0.0776,0.0782,0.0814,0.042,0.0652,0.0651,0.0651,0.065,0.065,0,-0.0823,-0.0872,-0.0919,-0.0986,-0.1024,-0.1076,-0.1136,-0.1132,-0.1115,-0.1061,-0.096,-0.054,-0.0063,0.0327,0.0841,0.0952,0.097,0.1009,0.1049,0.1101,0.0849,0.0803,0.0988,0.0988,0.0988,0.0988,0.0988,0.0988,-0.0775,-0.0811,-0.0862,-0.0909,-0.0952,-0.0982,-0.1005,-0.0983,-0.0949,-0.0779,-0.0611,-0.0462,0.0177,0.0803,0.1211,0.1228,0.1338,0.1295,0.1365,0.1193,0.1171,0.115,0.1114,0.1362,0.1362,0.1632,0.1635,0.1637]}],[{"header":{"parameterUnit":"m.s-1","parameterCategory":2,"la1":30.2991,"la2":30.254,"lo1":-89.0895,"lo2":-89.0444,"dy":0.0017,"dx":0.0017,"nx":28,"ny":28,"refTime":"2025-06-20T21:00:00:Z","depth":"2","parameterNumber":2,"parameterNumberName":"U-component_of_CURRENTS"},"data":[0,0,0,0,0,0,0,0,0,0,0,0,0,0,0,0,0,0,0,0,0,0,0,0,0,0,0,0,0,0,0,0,0,0,0,0,0,0,0,0,0,0,0,0,0,0,0,0,0,0,0,0,0,0,0,0,0,0,-0.2725,-0.2726,0,-0.2801,-0.2801,-0.2801,-0.2832,-0.2832,-0.2833,-0.2833,-0.2812,-0.2811,-0.281,0,0,0,0,0,0,0,0,0,0,0,0,0,-0.2475,-0.248,-0.2725,-0.2726,-0.2728,-0.2801,-0.2801,-0.2801,-0.2832,-0.2832,-0.2833,-0.2833,-0.2812,-0.2811,-0.281,0,0,0,0,0,0,0,0,0,0,0,0,0,-0.2565,-0.2481,-0.2725,-0.2756,-0.276,-0.28,-0.2801,-0.2802,-0.2832,-0.2832,-0.2833,-0.2834,-0.2812,-0.2811,-0.281,-0.279,0,0,-0.2805,-0.2805,0,0,0,0,0,0,0,0,-0.256,-0.2574,-0.275,-0.2754,-0.2759,-0.2813,-0.2705,-0.2795,-0.2832,-0.2798,-0.2833,-0.2834,-0.2806,-0.2806,-0.2812,-0.2789,-0.2788,-0.2805,-0.2804,-0.2804,-0.2803,0,0,0,0,0,0,0,-0.2554,-0.257,-0.2749,-0.2752,-0.2757,-0.2722,-0.2736,-0.2722,-0.2792,-0.2801,-0.2805,-0.2823,-0.2807,-0.2813,-0.2811,-0.2788,-0.2805,-0.2804,-0.2803,-0.2803,-0.2677,-0.2675,0,0,0,0,0,0,-0.2564,-0.2565,-0.2747,-0.2752,-0.2665,-0.2727,-0.2742,-0.279,-0.2794,-0.2798,-0.2822,-0.2824,-0.2815,-0.2813,-0.281,-0.2735,-0.2804,-0.2803,-0.2802,-0.268,-0.2677,-0.2674,0,0,0,0,0,0,-0.2559,-0.2581,-0.2744,-0.2662,-0.2681,-0.2732,-0.2784,-0.2791,-0.2797,-0.2813,-0.2813,-0.2822,-0.2815,-0.2812,-0.2788,-0.2736,-0.2802,-0.2801,-0.2683,-0.2679,-0.2675,-0.2617,0,0,0,0,0,0,-0.2552,-0.2579,-0.2622,-0.2664,-0.2687,-0.276,-0.2785,-0.2793,-0.281,-0.2813,-0.2812,-0.2811,-0.2815,-0.279,-0.2787,-0.2736,-0.28,-0.2686,-0.2681,-0.2677,-0.2622,-0.2612,-0.2603,0,0,0,0,0,-0.2543,-0.2604,-0.2624,-0.2646,-0.2744,-0.2761,-0.2767,-0.2799,-0.2809,-0.2806,-0.2803,-0.2811,-0.2757,-0.2788,-0.2784,-0.2731,-0.2688,-0.2682,-0.2677,-0.2627,-0.2614,-0.2603,0,0,0,0,0,0,-0.2517,-0.2615,-0.2637,-0.2726,-0.2736,-0.2768,-0.2784,-0.2793,-0.279,-0.2792,-0.2796,-0.2793,-0.2749,-0.2746,-0.2781,-0.2677,-0.2716,-0.271,-0.2679,-0.2667,-0.2658,-0.267,-0.2799,0,0,0,0,0,-0.2533,-0.2611,-0.2655,-0.2721,-0.2725,-0.2746,-0.2761,-0.2773,-0.2779,-0.278,-0.2774,-0.2754,-0.2721,-0.2704,-0.2685,-0.2637,-0.2624,-0.2593,-0.2583,-0.2575,-0.2579,-0.2522,-0.2509,-0.2656,-0.2656,-0.2656,0,0,-0.2549,-0.2607,-0.2656,-0.272,-0.2732,-0.273,-0.2754,-0.2769,-0.2757,-0.2774,-0.275,-0.2729,-0.2704,-0.265,-0.2627,-0.2642,-0.2519,-0.2568,-0.2562,-0.257,-0.2515,-0.2501,-0.2489,-0.2652,-0.2652,-0.2653,0,0,-0.2571,-0.2651,-0.2693,-0.2699,-0.2721,-0.273,-0.2728,-0.2739,-0.2731,-0.2704,-0.2701,-0.2652,-0.2617,-0.2579,-0.2556,-0.2478,-0.2477,-0.2461,-0.2416,-0.2359,-0.2348,-0.2337,-0.2278,-0.2262,-0.2448,-0.2448,-0.2448,0,-0.2575,-0.2637,-0.2696,-0.2701,-0.2702,-0.2721,-0.2706,-0.2704,-0.2702,-0.2677,-0.2686,-0.2603,-0.2577,-0.2499,-0.2464,-0.2455,-0.2431,-0.2466,-0.2349,-0.2338,-0.2329,-0.2271,-0.2255,-0.2444,-0.2445,-0.2445,-0.2446,0,-0.26,-0.2634,-0.2644,-0.2669,-0.2673,-0.2667,-0.2664,-0.2649,-0.2637,-0.2622,-0.255,-0.2517,-0.2463,-0.2428,-0.2422,-0.2325,-0.2332,-0.2352,-0.2385,-0.2311,-0.2253,-0.2238,-0.2439,-0.2441,-0.2442,-0.2443,0,0,-0.2637,-0.2658,-0.2657,-0.2639,-0.2649,-0.2646,-0.2621,-0.2586,-0.2555,-0.2528,-0.2467,-0.239,-0.2375,-0.2347,-0.2322,-0.2264,-0.2152,-0.2274,-0.2273,-0.2227,-0.2024,-0.2,-0.1981,-0.2159,-0.2157,-0.2155,-0.2003,0,-0.2616,-0.2607,-0.263,-0.2598,-0.2578,-0.258,-0.2552,-0.2528,-0.2499,-0.2448,-0.2396,-0.2336,-0.2344,-0.2302,-0.2247,-0.2189,-0.2113,-0.2192,-0.2093,-0.209,-0.2088,-0.1963,-0.1824,-0.1676,-0.1988,-0.1986,-0.1984,0,-0.2615,-0.2608,-0.2569,-0.2537,-0.2527,-0.2508,-0.2459,-0.2436,-0.2382,-0.2358,-0.2306,-0.2283,-0.2193,-0.2211,-0.2081,-0.2136,-0.2067,-0.2023,-0.2017,-0.2011,-0.2037,-0.1804,-0.1637,-0.1958,-0.196,-0.1962,-0.1964,0,-0.2581,-0.2559,-0.2521,-0.2513,-0.2487,-0.2453,-0.2431,-0.2391,-0.2357,-0.2295,-0.2266,-0.2191,-0.2139,-0.2064,-0.1992,-0.2022,-0.1855,-0.1884,-0.1793,-0.1791,-0.1661,-0.1653,-0.1765,-0.1765,-0.1765,-0.1766,-0.1766,0,-0.2548,-0.2518,-0.2496,-0.2472,-0.2407,-0.241,-0.234,-0.2315,-0.2275,-0.2236,-0.2213,-0.2178,-0.2102,-0.202,-0.1956,-0.1826,-0.1821,-0.1754,-0.1738,-0.1634,-0.1625,-0.188,-0.1895,-0.176,-0.1761,-0.1763,-0.1763,0,-0.2503,-0.2501,-0.2442,-0.24,-0.2384,-0.2329,-0.2284,-0.2244,-0.2228,-0.2179,-0.216,-0.2129,-0.2036,-0.1954,-0.1816,-0.1766,-0.1653,-0.1605,-0.1491,-0.1464,-0.163,-0.1644,-0.1466,-0.1463,-0.1461,-0.146,-0.1458,0,-0.2473,-0.2437,-0.2374,-0.2335,-0.2304,-0.2246,-0.2211,-0.22,-0.2187,-0.2164,-0.2148,-0.2057,-0.1981,-0.1781,-0.1647,-0.1482,-0.1573,-0.1296,-0.1324,-0.1591,-0.1593,-0.1611,-0.1627,-0.1109,-0.1104,-0.1101,-0.1098,0,-0.2388,-0.2363,-0.2317,-0.223,-0.2181,-0.2141,-0.211,-0.2111,-0.2124,-0.2077,-0.2043,-0.197,-0.1801,-0.1573,-0.1384,-0.129,-0.1317,-0.1224,-0.1478,-0.1238,-0.1251,-0.1256,-0.1283,-0.1068,-0.1071,-0.1073,-0.1075,-0.1076,-0.2311,-0.2246,-0.2178,-0.209,-0.2053,-0.2029,-0.1978,-0.1993,-0.1946,-0.1834,-0.1875,-0.1663,-0.1587,-0.1196,-0.1095,-0.0997,-0.1102,-0.1039,-0.105,-0.1065,-0.1083,-0.1094,-0.0884,-0.0886,-0.0887,-0.0889,-0.089,0,-0.2177,-0.2117,-0.204,-0.1944,-0.1887,-0.1892,-0.1896,-0.1822,-0.175,-0.1615,-0.1483,-0.1189,-0.1006,-0.0945,-0.074,-0.0701,-0.0685,-0.0679,-0.0671,-0.0701,-0.0727,-0.073,-0.0436,-0.0435,-0.0434,-0.0433,0,0,-0.2104,-0.1989,-0.1942,-0.1797,-0.174,-0.165,-0.1636,-0.1521,-0.1415,-0.1142,-0.0948,-0.0846,-0.0883,-0.0639,-0.0595,-0.0497,-0.0589,-0.0451,-0.0811,-0.0829,-0.0855,-0.0925,-0.0961,0,0,0,0,0]},{"header":{"parameterUnit":"m.s-1","parameterCategory":2,"la1":30.2991,"la2":30.254,"lo1":-89.0895,"lo2":-89.0444,"dy":0.0017,"dx":0.0017,"nx":28,"ny":28,"refTime":"2025-06-20T21:00:00:Z","depth":"2","parameterNumber":3,"parameterNumberName":"V-component_of_CURRENTS"},"data":[0,0,0,0,0,0,0,0,0,0,0,0,0,0,0,0,0,0,0,0,0,0,0,0,0,0,0,0,0,0,0,0,0,0,0,0,0,0,0,0,0,0,0,0,0,0,0,0,0,0,0,0,0,0,0,0,0,0,0.0359,0.0361,0,0.057,0.0572,0.0573,0.067,0.067,0.0671,0.0671,0.0781,0.0784,0.0786,0,0,0,0,0,0,0,0,0,0,0,0,0,-0.0023,-0.0017,0.0358,0.0362,0.0365,0.057,0.0572,0.0574,0.067,0.067,0.0671,0.0672,0.0781,0.0783,0.0786,0,0,0,0,0,0,0,0,0,0,0,0,0,0.0153,-0.0015,0.0358,0.0444,0.0454,0.0569,0.0572,0.0574,0.067,0.067,0.0671,0.0672,0.078,0.0783,0.0787,0.0792,0,0,0.0798,0.0799,0,0,0,0,0,0,0,0,0.0143,0.0166,0.0428,0.0438,0.045,0.0602,0.0478,0.0645,0.0669,0.0579,0.0671,0.0672,0.0717,0.0725,0.0753,0.0797,0.0802,0.0798,0.08,0.0802,0.0803,0,0,0,0,0,0,0,0.013,0.0157,0.0434,0.0431,0.0445,0.0452,0.0477,0.051,0.0632,0.0587,0.0597,0.0633,0.0721,0.0749,0.0756,0.0804,0.0798,0.0801,0.0803,0.0805,0.0807,0.0805,0,0,0,0,0,0,0.0125,0.0146,0.0427,0.0441,0.0305,0.0459,0.0487,0.0545,0.0634,0.0652,0.0632,0.0637,0.0743,0.0752,0.076,0.0754,0.0802,0.0805,0.0807,0.0809,0.0807,0.0805,0,0,0,0,0,0,0.0116,0.0148,0.0419,0.0303,0.0339,0.0466,0.053,0.0549,0.059,0.0672,0.0685,0.0655,0.0744,0.0755,0.078,0.076,0.0807,0.081,0.0812,0.0809,0.0806,0.0753,0,0,0,0,0,0,0.0104,0.0144,0.0195,0.0304,0.0346,0.0487,0.0531,0.0553,0.0615,0.0623,0.0695,0.0706,0.0745,0.0774,0.0783,0.0766,0.0813,0.0815,0.081,0.0807,0.0758,0.0749,0.0741,0,0,0,0,0,0.009,0.0157,0.0196,0.0231,0.0408,0.0488,0.0509,0.0594,0.0615,0.0631,0.0667,0.0704,0.0754,0.0776,0.0787,0.077,0.0816,0.0812,0.0807,0.0761,0.075,0.0741,0,0,0,0,0,0,0.0012,0.0177,0.0222,0.0336,0.0405,0.0508,0.055,0.0591,0.0636,0.0637,0.0695,0.0708,0.0713,0.0742,0.0764,0.0752,0.0784,0.0782,0.0745,0.0736,0.0728,0.0754,0.0816,0,0,0,0,0,0.002,0.0122,0.0237,0.0324,0.0357,0.0445,0.0493,0.0538,0.0594,0.0617,0.0662,0.0689,0.07,0.0721,0.0737,0.0748,0.0793,0.0734,0.0726,0.0719,0.0744,0.0783,0.0782,0.0789,0.0789,0.0789,0,0,0.0012,0.012,0.0175,0.0315,0.0375,0.0422,0.0474,0.0536,0.0567,0.0617,0.0657,0.0664,0.0692,0.0695,0.0699,0.0723,0.0733,0.0713,0.0707,0.0737,0.0778,0.0778,0.0778,0.0786,0.0786,0.0787,0,0,0.0022,0.0133,0.0202,0.026,0.0361,0.0412,0.0424,0.0509,0.054,0.0574,0.0596,0.0598,0.0638,0.0652,0.0662,0.0618,0.068,0.0604,0.0603,0.0639,0.064,0.0642,0.0681,0.0686,0.061,0.061,0.061,0,0.0002,0.0115,0.0221,0.0281,0.0331,0.0399,0.0432,0.0475,0.0551,0.0573,0.0576,0.0612,0.0621,0.0635,0.0605,0.0604,0.0639,0.0644,0.0633,0.0636,0.0639,0.0678,0.0685,0.0607,0.0607,0.0607,0.0608,0,0.0046,0.013,0.0162,0.0273,0.0328,0.0366,0.0435,0.0468,0.05,0.0544,0.0561,0.057,0.0601,0.0576,0.0581,0.0587,0.0608,0.0613,0.067,0.0636,0.0678,0.0686,0.0602,0.0603,0.0604,0.0605,0,0,0.0007,0.0165,0.0173,0.0215,0.0324,0.0364,0.0411,0.0476,0.0513,0.0544,0.0591,0.0567,0.0579,0.0588,0.0582,0.0602,0.0619,0.0612,0.0616,0.0671,0.071,0.0599,0.0598,0.0629,0.063,0.0632,0.0726,0,-0.0002,0.0089,0.018,0.0236,0.0276,0.0358,0.0402,0.0465,0.0517,0.0574,0.0586,0.0614,0.0583,0.0585,0.0598,0.0622,0.0642,0.0594,0.0718,0.0722,0.0645,0.0604,0.0574,0.0645,0.0735,0.0737,0.0738,0,-0.0002,0.0068,0.0118,0.023,0.0253,0.029,0.0379,0.0428,0.0523,0.0567,0.0611,0.0642,0.0667,0.0641,0.0697,0.0671,0.0685,0.0702,0.0707,0.0638,0.0627,0.0694,0.0657,0.0753,0.0751,0.075,0.0749,0,-0.0098,0.0021,0.0057,0.0093,0.0221,0.025,0.0309,0.041,0.0463,0.0564,0.0617,0.0671,0.0697,0.0734,0.0744,0.0737,0.0813,0.0814,0.0735,0.0729,0.0746,0.0736,0.0858,0.0858,0.0858,0.0857,0.0857,0,-0.014,-0.0111,0.0012,0.0029,0.0072,0.0181,0.0237,0.0313,0.043,0.0488,0.0591,0.0626,0.0721,0.077,0.0781,0.0772,0.0844,0.0738,0.0741,0.0718,0.0705,0.0837,0.0834,0.0861,0.086,0.0859,0.0859,0,-0.0251,-0.017,-0.0123,-0.0007,0.0027,0.0049,0.0188,0.0242,0.0359,0.0445,0.0478,0.0613,0.0662,0.0745,0.0813,0.08,0.0818,0.0793,0.0751,0.0744,0.0713,0.0705,0.0746,0.0743,0.074,0.0738,0.0736,0,-0.0297,-0.0284,-0.0183,-0.0155,-0.0106,-0.0039,0.002,0.017,0.0239,0.04,0.0428,0.053,0.052,0.0599,0.0655,0.0693,0.0738,0.0683,0.0637,0.0699,0.07,0.0696,0.0692,0.0656,0.0654,0.0652,0.065,0,-0.0388,-0.0358,-0.0319,-0.0262,-0.0208,-0.013,-0.0038,-0.0001,0.0169,0.0201,0.0224,0.022,0.0346,0.037,0.0473,0.0489,0.0676,0.0636,0.0755,0.0646,0.061,0.0611,0.0612,0.0632,0.0634,0.0635,0.0636,0.0637,-0.0467,-0.0463,-0.0407,-0.0357,-0.0293,-0.023,-0.0196,-0.0131,-0.0106,-0.0052,-0.0021,-0.0015,0.0146,0.022,0.0316,0.0476,0.0472,0.0518,0.0527,0.0538,0.0468,0.0424,0.0401,0.0402,0.0402,0.0402,0.0403,0,-0.0546,-0.0518,-0.0485,-0.0419,-0.0382,-0.0302,-0.0225,-0.0234,-0.0285,-0.0229,-0.0281,-0.0196,-0.0121,0.0112,0.0306,0.0363,0.0415,0.0406,0.0486,0.0499,0.0513,0.0446,0.0372,0.0372,0.0372,0.0373,0,0,-0.0582,-0.058,-0.0548,-0.0511,-0.0456,-0.0403,-0.0373,-0.0436,-0.0405,-0.0467,-0.0408,-0.0382,-0.0109,0.0018,0.0155,0.0291,0.0373,0.0296,0.0304,0.0394,0.0407,0.055,0.0456,0,0,0,0,0]}],[{"header":{"parameterUnit":"m.s-1","parameterCategory":2,"la1":30.2991,"la2":30.254,"lo1":-89.0895,"lo2":-89.0444,"dy":0.0017,"dx":0.0017,"nx":28,"ny":28,"refTime":"2025-06-20T21:00:00:Z","depth":"4","parameterNumber":2,"parameterNumberName":"U-component_of_CURRENTS"},"data":[0,0,0,0,0,0,0,0,0,0,0,0,0,0,0,0,0,0,0,0,0,0,0,0,0,0,0,0,0,0,0,0,0,0,0,0,0,0,0,0,0,0,0,0,0,0,0,0,0,0,0,0,0,0,0,0,0,0,-0.0964,-0.0964,0,-0.0983,-0.0983,-0.0983,-0.0996,-0.0997,-0.0997,-0.0997,-0.1098,-0.11,-0.1102,0,0,0,0,0,0,0,0,0,0,0,0,0,-0.0939,-0.0939,-0.0964,-0.0964,-0.0965,-0.0983,-0.0983,-0.0983,-0.0996,-0.0997,-0.0997,-0.0998,-0.1097,-0.11,-0.1103,0,0,0,0,0,0,0,0,0,0,0,0,0,-0.0951,-0.0939,-0.0964,-0.0975,-0.0977,-0.0983,-0.0983,-0.0983,-0.0996,-0.0997,-0.0997,-0.0998,-0.1096,-0.11,-0.1103,-0.1115,0,0,-0.1114,-0.1115,0,0,0,0,0,0,0,0,-0.095,-0.0951,-0.0973,-0.0975,-0.0976,-0.099,-0.1011,-0.1032,-0.0996,-0.0986,-0.0997,-0.0998,-0.1071,-0.1076,-0.1074,-0.112,-0.1124,-0.1114,-0.1116,-0.1118,-0.1119,0,0,0,0,0,0,0,-0.0949,-0.0951,-0.0969,-0.0974,-0.0976,-0.098,-0.0982,-0.1015,-0.1025,-0.0987,-0.0989,-0.0995,-0.1072,-0.107,-0.1077,-0.1125,-0.1114,-0.1117,-0.1119,-0.1121,-0.1258,-0.1259,0,0,0,0,0,0,-0.0951,-0.095,-0.0968,-0.097,-0.0967,-0.098,-0.0982,-0.0983,-0.1023,-0.1029,-0.0994,-0.0995,-0.1064,-0.1073,-0.1081,-0.1143,-0.1118,-0.1121,-0.1123,-0.1256,-0.1258,-0.126,0,0,0,0,0,0,-0.095,-0.0952,-0.0967,-0.0962,-0.0965,-0.098,-0.0981,-0.0983,-0.0998,-0.1028,-0.1036,-0.1009,-0.1065,-0.1076,-0.1105,-0.1146,-0.1123,-0.1126,-0.1254,-0.1257,-0.1259,-0.1239,0,0,0,0,0,0,-0.0949,-0.0952,-0.0944,-0.0962,-0.0965,-0.0978,-0.0981,-0.0983,-0.1001,-0.1003,-0.1043,-0.1052,-0.1066,-0.1099,-0.1108,-0.115,-0.1129,-0.1253,-0.1255,-0.1258,-0.1238,-0.1241,-0.1243,0,0,0,0,0,-0.0948,-0.0947,-0.0943,-0.0945,-0.0957,-0.0978,-0.098,-0.0991,-0.1002,-0.1006,-0.1024,-0.1051,-0.1126,-0.1102,-0.1113,-0.1157,-0.1251,-0.1255,-0.1258,-0.1237,-0.124,-0.1243,0,0,0,0,0,0,-0.0937,-0.0948,-0.0945,-0.0947,-0.0962,-0.0982,-0.0981,-0.1,-0.1016,-0.1024,-0.105,-0.1059,-0.1111,-0.1133,-0.1107,-0.1208,-0.1202,-0.1208,-0.1183,-0.1187,-0.1189,-0.1217,-0.1132,0,0,0,0,0,-0.0929,-0.0934,-0.0943,-0.0951,-0.0948,-0.0967,-0.0975,-0.0994,-0.1015,-0.1023,-0.1045,-0.1084,-0.1131,-0.1154,-0.1191,-0.1231,-0.124,-0.1276,-0.1278,-0.1279,-0.1312,-0.1346,-0.1354,-0.1271,-0.1271,-0.1271,0,0,-0.0928,-0.0938,-0.0939,-0.0949,-0.0953,-0.0959,-0.0972,-0.0997,-0.1026,-0.1034,-0.1064,-0.1092,-0.1144,-0.1188,-0.1217,-0.1212,-0.1296,-0.1284,-0.1285,-0.1317,-0.1351,-0.1359,-0.1366,-0.1273,-0.1273,-0.1272,0,0,-0.0937,-0.0932,-0.0931,-0.0939,-0.0957,-0.0968,-0.098,-0.1,-0.1026,-0.106,-0.1083,-0.1119,-0.118,-0.1214,-0.1246,-0.1288,-0.1308,-0.1321,-0.1354,-0.1386,-0.1393,-0.1399,-0.1359,-0.1362,-0.132,-0.132,-0.132,0,-0.0934,-0.0932,-0.0937,-0.0939,-0.0947,-0.0973,-0.0979,-0.1012,-0.1048,-0.1071,-0.1074,-0.1166,-0.1196,-0.1269,-0.1292,-0.1294,-0.13,-0.1329,-0.1387,-0.1394,-0.1401,-0.1359,-0.1363,-0.132,-0.132,-0.132,-0.132,0,-0.0929,-0.0933,-0.0936,-0.094,-0.0952,-0.0968,-0.1003,-0.1028,-0.1062,-0.1093,-0.1167,-0.1201,-0.1262,-0.1282,-0.1307,-0.1388,-0.1367,-0.138,-0.1371,-0.1407,-0.136,-0.1365,-0.1319,-0.1319,-0.132,-0.132,0,0,-0.0909,-0.0926,-0.0927,-0.0927,-0.0955,-0.0965,-0.1013,-0.1054,-0.1078,-0.1141,-0.1177,-0.1277,-0.1307,-0.135,-0.1384,-0.1421,-0.1445,-0.1437,-0.1439,-0.1383,-0.1477,-0.1349,-0.1341,-0.1478,-0.148,-0.1482,-0.1401,0,-0.0899,-0.0901,-0.0921,-0.0933,-0.0925,-0.0967,-0.1003,-0.1055,-0.1094,-0.1127,-0.1215,-0.1256,-0.1335,-0.1351,-0.1422,-0.144,-0.1469,-0.1464,-0.1467,-0.1466,-0.1337,-0.1347,-0.1489,-0.1404,-0.1405,-0.1406,-0.1406,0,-0.0871,-0.0879,-0.0885,-0.0916,-0.0916,-0.0937,-0.0975,-0.102,-0.109,-0.1126,-0.1211,-0.1251,-0.1344,-0.1381,-0.1484,-0.1485,-0.1508,-0.1513,-0.151,-0.1415,-0.1349,-0.138,-0.1414,-0.1413,-0.1413,-0.1412,-0.1412,0,-0.083,-0.0852,-0.0859,-0.0867,-0.0905,-0.0929,-0.0958,-0.1016,-0.1047,-0.1117,-0.1123,-0.1248,-0.1281,-0.1377,-0.1428,-0.1464,-0.1487,-0.1515,-0.1414,-0.1401,-0.1547,-0.1542,-0.1588,-0.1588,-0.1588,-0.1588,-0.1588,0,-0.0798,-0.0804,-0.084,-0.0842,-0.0849,-0.0898,-0.0915,-0.0963,-0.1018,-0.1033,-0.1133,-0.1151,-0.1294,-0.1322,-0.1398,-0.1403,-0.1468,-0.1425,-0.139,-0.1531,-0.1526,-0.1545,-0.1541,-0.1585,-0.1586,-0.1586,-0.1587,0,-0.0754,-0.0778,-0.0785,-0.0823,-0.083,-0.0841,-0.0878,-0.0888,-0.0953,-0.0969,-0.0987,-0.1077,-0.112,-0.12,-0.1279,-0.1313,-0.1334,-0.1315,-0.1396,-0.1366,-0.1231,-0.1227,-0.1202,-0.1197,-0.1193,-0.119,-0.1187,0,-0.0731,-0.0732,-0.0758,-0.0753,-0.0772,-0.0786,-0.0791,-0.0857,-0.0863,-0.0914,-0.0912,-0.0945,-0.1003,-0.1,-0.1115,-0.1175,-0.1205,-0.1174,-0.1295,-0.1232,-0.1201,-0.1203,-0.1205,-0.1181,-0.118,-0.1179,-0.1178,0,-0.0689,-0.0708,-0.0712,-0.07,-0.0701,-0.0692,-0.0705,-0.0696,-0.0761,-0.0811,-0.0811,-0.0834,-0.0854,-0.0934,-0.095,-0.1023,-0.1178,-0.1134,-0.1145,-0.1259,-0.1205,-0.1179,-0.1186,-0.1164,-0.1166,-0.1167,-0.1168,0,-0.0659,-0.0647,-0.0654,-0.0638,-0.0631,-0.0603,-0.0615,-0.0615,-0.0633,-0.0698,-0.0685,-0.0755,-0.0816,-0.085,-0.0885,-0.0913,-0.096,-0.0973,-0.0994,-0.101,-0.0997,-0.0904,-0.0742,0,0,0,0,0,-0.0622,-0.06,-0.0584,-0.0554,-0.0546,-0.054,-0.0558,-0.0579,-0.0618,-0.0596,-0.0645,-0.0665,-0.0712,-0.0758,-0.0765,-0.0835,-0.0969,-0.0838,-0.0995,-0.1086,-0.1102,-0.1111,0,0,0,0,0,0,-0.0592,-0.0578,-0.0566,-0.0492,-0.0453,-0.0434,-0.0444,-0.0474,-0.0471,-0.0526,-0.0564,-0.0612,-0.0683,-0.0696,-0.0744,-0.076,-0.0845,-0.0889,-0.0887,-0.1076,-0.1091,-0.1104,-0.112,0,0,0,0,0]},{"header":{"parameterUnit":"m.s-1","parameterCategory":2,"la1":30.2991,"la2":30.254,"lo1":-89.0895,"lo2":-89.0444,"dy":0.0017,"dx":0.0017,"nx":28,"ny":28,"refTime":"2025-06-20T21:00:00:Z","depth":"4","parameterNumber":3,"parameterNumberName":"V-component_of_CURRENTS"},"data":[0,0,0,0,0,0,0,0,0,0,0,0,0,0,0,0,0,0,0,0,0,0,0,0,0,0,0,0,0,0,0,0,0,0,0,0,0,0,0,0,0,0,0,0,0,0,0,0,0,0,0,0,0,0,0,0,0,0,-0.0463,-0.0463,0,-0.048,-0.048,-0.048,-0.0471,-0.047,-0.047,-0.047,-0.0454,-0.0453,-0.0453,0,0,0,0,0,0,0,0,0,0,0,0,0,-0.0409,-0.041,-0.0463,-0.0463,-0.0464,-0.048,-0.048,-0.048,-0.0471,-0.047,-0.047,-0.047,-0.0454,-0.0453,-0.0453,0,0,0,0,0,0,0,0,0,0,0,0,0,-0.0429,-0.041,-0.0463,-0.0462,-0.0462,-0.048,-0.048,-0.048,-0.0471,-0.047,-0.047,-0.0469,-0.0454,-0.0453,-0.0453,-0.0464,0,0,-0.0453,-0.0453,0,0,0,0,0,0,0,0,-0.0428,-0.0431,-0.0462,-0.0462,-0.0462,-0.0474,-0.0455,-0.0474,-0.0471,-0.0466,-0.047,-0.0469,-0.0458,-0.0458,-0.0461,-0.0463,-0.0463,-0.0453,-0.0453,-0.0453,-0.0453,0,0,0,0,0,0,0,-0.0426,-0.043,-0.0469,-0.0462,-0.0462,-0.0456,-0.0458,-0.0459,-0.0464,-0.0467,-0.0466,-0.047,-0.0458,-0.0461,-0.0461,-0.0462,-0.0453,-0.0453,-0.0453,-0.0453,-0.049,-0.0491,0,0,0,0,0,0,-0.0428,-0.0429,-0.0468,-0.0469,-0.0444,-0.0457,-0.046,-0.047,-0.0465,-0.0464,-0.0471,-0.047,-0.0462,-0.0461,-0.046,-0.0499,-0.0453,-0.0453,-0.0453,-0.0489,-0.049,-0.0491,0,0,0,0,0,0,-0.0427,-0.0431,-0.0468,-0.045,-0.0454,-0.0459,-0.047,-0.047,-0.048,-0.0468,-0.0466,-0.048,-0.0461,-0.046,-0.0484,-0.0497,-0.0453,-0.0453,-0.0488,-0.0489,-0.0491,-0.0559,0,0,0,0,0,0,-0.0425,-0.0431,-0.0444,-0.045,-0.0455,-0.0483,-0.0471,-0.0471,-0.0483,-0.0482,-0.0476,-0.0473,-0.0461,-0.0485,-0.0484,-0.0496,-0.0452,-0.0486,-0.0489,-0.049,-0.0556,-0.0563,-0.0569,0,0,0,0,0,-0.0423,-0.0443,-0.0444,-0.0449,-0.0471,-0.0483,-0.0485,-0.0486,-0.0484,-0.0491,-0.0501,-0.0474,-0.0496,-0.0486,-0.0485,-0.0497,-0.0485,-0.0488,-0.049,-0.0553,-0.0562,-0.0569,0,0,0,0,0,0,-0.0426,-0.0444,-0.0446,-0.047,-0.0478,-0.0482,-0.0491,-0.0494,-0.0507,-0.0508,-0.0498,-0.0497,-0.0521,-0.0503,-0.0493,-0.0513,-0.0482,-0.0484,-0.0529,-0.0538,-0.0544,-0.0542,-0.0452,0,0,0,0,0,-0.0434,-0.0454,-0.0463,-0.0483,-0.0486,-0.0491,-0.0498,-0.05,-0.051,-0.0515,-0.0519,-0.052,-0.0529,-0.053,-0.0534,-0.0549,-0.0516,-0.0553,-0.0559,-0.0565,-0.0563,-0.0538,-0.0542,-0.0499,-0.0499,-0.0499,0,0,-0.044,-0.0454,-0.0465,-0.0485,-0.0489,-0.0506,-0.0494,-0.0507,-0.053,-0.0512,-0.0548,-0.0549,-0.0542,-0.0564,-0.0571,-0.055,-0.0561,-0.0568,-0.0574,-0.0567,-0.0541,-0.0545,-0.0548,-0.0501,-0.0501,-0.05,0,0,-0.0458,-0.0473,-0.0491,-0.0504,-0.0517,-0.0522,-0.0528,-0.0542,-0.0554,-0.0587,-0.0584,-0.0605,-0.0609,-0.0617,-0.0618,-0.0664,-0.0603,-0.0651,-0.0678,-0.0655,-0.0658,-0.066,-0.0624,-0.0623,-0.0648,-0.0648,-0.0648,0,-0.0463,-0.0491,-0.0497,-0.0519,-0.0537,-0.0532,-0.0556,-0.0569,-0.0594,-0.061,-0.0603,-0.0636,-0.0637,-0.0666,-0.0683,-0.068,-0.0642,-0.0649,-0.0663,-0.0665,-0.0666,-0.0628,-0.0625,-0.0652,-0.0651,-0.0651,-0.0651,0,-0.049,-0.0518,-0.053,-0.0558,-0.0578,-0.0597,-0.0616,-0.0638,-0.0651,-0.066,-0.0695,-0.0707,-0.072,-0.0724,-0.0718,-0.0731,-0.0693,-0.068,-0.0641,-0.0674,-0.0632,-0.0628,-0.0657,-0.0656,-0.0654,-0.0654,0,0,-0.049,-0.0538,-0.0544,-0.057,-0.0604,-0.0622,-0.0663,-0.0692,-0.0716,-0.0735,-0.0769,-0.0795,-0.0788,-0.0789,-0.0784,-0.0766,-0.0754,-0.0722,-0.0719,-0.0684,-0.0679,-0.0606,-0.0594,-0.073,-0.073,-0.073,-0.0647,0,-0.0508,-0.0556,-0.058,-0.0633,-0.0659,-0.0683,-0.0721,-0.0751,-0.0768,-0.0798,-0.0806,-0.0834,-0.0814,-0.0827,-0.0808,-0.0774,-0.0745,-0.0776,-0.0654,-0.065,-0.0579,-0.0588,-0.0729,-0.0643,-0.0642,-0.0642,-0.0641,0,-0.0527,-0.0561,-0.0614,-0.0677,-0.069,-0.0725,-0.0782,-0.0816,-0.0848,-0.0861,-0.0877,-0.0876,-0.0884,-0.0857,-0.0795,-0.0807,-0.0746,-0.0706,-0.0702,-0.0604,-0.0569,-0.0603,-0.0633,-0.0634,-0.0634,-0.0635,-0.0635,0,-0.0525,-0.0587,-0.0633,-0.0657,-0.0722,-0.0759,-0.0794,-0.0835,-0.0861,-0.0904,-0.0909,-0.0915,-0.0912,-0.0853,-0.0776,-0.078,-0.0679,-0.0679,-0.0552,-0.0545,-0.0606,-0.0604,-0.0617,-0.0617,-0.0618,-0.0618,-0.0618,0,-0.0538,-0.0578,-0.0639,-0.0669,-0.0726,-0.0773,-0.0827,-0.0862,-0.0901,-0.0917,-0.0937,-0.0933,-0.0903,-0.0844,-0.0777,-0.0641,-0.0676,-0.0549,-0.0518,-0.0637,-0.064,-0.0603,-0.0602,-0.0615,-0.0615,-0.0616,-0.0617,0,-0.0535,-0.0572,-0.063,-0.0705,-0.0729,-0.0775,-0.0843,-0.0873,-0.0906,-0.0929,-0.0943,-0.0938,-0.0854,-0.0793,-0.0694,-0.0626,-0.0526,-0.0465,-0.0585,-0.0564,-0.0409,-0.0413,-0.0326,-0.0323,-0.032,-0.0317,-0.0316,0,-0.054,-0.0568,-0.0649,-0.0681,-0.072,-0.0784,-0.0822,-0.0877,-0.0896,-0.0913,-0.0912,-0.086,-0.0834,-0.0641,-0.0583,-0.0441,-0.0413,-0.037,-0.0403,-0.0399,-0.0378,-0.0387,-0.0395,-0.0311,-0.031,-0.031,-0.0309,0,-0.0549,-0.0577,-0.0621,-0.068,-0.0731,-0.0784,-0.0836,-0.0841,-0.0886,-0.0909,-0.0863,-0.0797,-0.0687,-0.0593,-0.0474,-0.0378,-0.0416,-0.0341,-0.0346,-0.0377,-0.038,-0.0364,-0.0375,-0.0299,-0.0301,-0.0301,-0.0302,0,-0.0552,-0.0577,-0.0626,-0.0675,-0.0735,-0.0773,-0.0803,-0.0813,-0.0833,-0.084,-0.0816,-0.0739,-0.0712,-0.0554,-0.0451,-0.0346,-0.0322,-0.0308,-0.0315,-0.0325,-0.0352,-0.0358,-0.0236,0,0,0,0,0,-0.0552,-0.0572,-0.0617,-0.0672,-0.0727,-0.0762,-0.0806,-0.0826,-0.0848,-0.0803,-0.0809,-0.0708,-0.0558,-0.051,-0.0384,-0.0393,-0.0306,-0.0243,-0.0295,-0.0245,-0.0256,-0.0282,0,0,0,0,0,0,-0.0551,-0.0589,-0.0608,-0.0658,-0.069,-0.0751,-0.078,-0.0796,-0.0764,-0.0771,-0.0688,-0.0671,-0.0521,-0.062,-0.038,-0.0352,-0.0365,-0.0184,-0.0181,-0.0239,-0.0249,-0.0258,-0.0288,0,0,0,0,0]}]]